Main page
METAR-TAF:

METAR-TAF

Airports :

Winchester Municipal Airport

Winchester, Tennessee, United States

latitude: 35-10-39N, longitude: 086-03-58W, elevation: 977 ft

Current weather observation

The report was made 13 minutes ago, at 03:15 UTC
Calm wind
Temperature 73°F
Humidity 78%
Pressure 30.10 in. Hg
Visibility: 10 miles
Clear sky

METAR: KBGF 030315Z AUTO 00000KT 10SM CLR 23/19 A3010 RMK A01

Time: 22:28 (03:28 UTC)


TAF: missing

Weather observations and forecasts of more than 4000 airports (METAR and TAF reports).

The available stations are represented by yellow and red dots on the map.

Hover mouse over dot to see the name of the station.

Then click to see weather observations and forecasts.

To change the map : click on the green buttons with a black cross to zoom in, on the green button with a dash to zoom out, or on the green arrows for adjacent maps.


METAR-TAF: